Regional Weather Roundup
Issued by NWS

Home | Current Version | Previous Version | Graphics & Text | Print | Product List | Glossary On
Versions: 1 2 3 4 5 6 7 8 9 10 11 12 13 14 15 16 17 18 19 20 21 22 23 24 25 26 27 28 29 30 31 32 33 34 35 36 37 38 39 40 41 42 43 44 45 46 47 48 49 50
000
ASUS45 KCYS 160210
RWRWY

WYOMING REGIONAL WEATHER ROUNDUP
NATIONAL WEATHER SERVICE CHEYENNE WY
800 PM MDT MON SEP 15 2014

NOTE:  "FAIR" INDICATES FEW OR NO CLOUDS BELOW 12,000 FEET
WITH NO SIGNIFICANT WEATHER AND/OR OBSTRUCTIONS TO VISIBILITY.

WYZ001-160300-
YELLOWSTONE NATIONAL PARK

CITY           SKY/WX    TMP DP  RH WIND       PRES   REMARKS
LK YELLOWSTONE   N/A     50  36  58 NW5       30.33R
W YELLOWSTONE  NOT AVBL

$$
WYZ002>013-054>058-071-098>099-160300-
NORTHERN WYOMING

CITY           SKY/WX    TMP DP  RH WIND       PRES   REMARKS
JACKSON        CLEAR     66  27  22 SW6       30.22R
CODY           CLEAR     61  45  55 N5        30.14R
GREYBULL       CLEAR     66  41  40 NW8       30.05R
WORLAND        CLEAR     61  46  57 NE3       30.05R
SHERIDAN       CLEAR     56  47  71 VRB5      30.08S
BUFFALO        CLEAR     57  45  64 SW7       30.14S
GILLETTE       CLEAR     58  45  62 SE6       30.10S
HULETT         FAIR      55  43  62 MISG      30.12
NEWCASTLE      FAIR      61  39  44 E8        30.14

$$
WYZ014>020-022>026-101>103-160300-
CENTRAL WYOMING

CITY           SKY/WX    TMP DP  RH WIND       PRES   REMARKS
BIG PINEY      PTCLDY    59  32  36 NW8       30.26S
PINEDALE       CLEAR     59  30  33 W6        30.27R
DUBOIS         FAIR      61  28  29 W9        30.24R
LANDER         PTCLDY    67  43  41 SW8       30.10R
RIVERTON       CLEAR     64  35  34 N6        30.12R
CASPER         PTCLDY    66  34  30 S3        30.11S
DOUGLAS        PTCLDY    63  43  48 E10       30.13F

$$
WYZ021-027>030-104>119-160300-
SOUTHERN WYOMING

CITY           SKY/WX    TMP DP  RH WIND       PRES   REMARKS
EVANSTON       CLEAR     66  30  26 W12       30.28S
KEMMERER       CLEAR    N/A N/A N/A NW8       30.29R
FORT BRIDGER   FAIR      67  30  25 W6        30.29S
ROCK SPRINGS   PTCLDY    67  33  28 SW7       30.24R
DIXON          FAIR      60  46  61 E6        30.26S
RAWLINS        PTCLDY    65  33  30 SW9       30.24S
SARATOGA       FAIR      64  34  32 SW7       30.27S
LARAMIE        PTCLDY    55  41  59 S14       30.29S
CHEYENNE       CLEAR     57  44  62 S13       30.26F
TORRINGTON     CLEAR     61  46  57 SE13      30.14R
PINE BLUFFS    FAIR      54  45  71 S7        30.23F

$$


USA.gov is the U.S. government's official web portal to all federal, state and local government web resources and services.